Bridgeport, WV

4:34 AM EST on January 18, 2017 (GMT -0500)
Benedum

Weather History for KCKB - May, 2014

Change the Weather History Date:

Monday, May 12, 2014

  Actual Average Record
Temperature  
Mean Temperature 69 °F -  
Max Temperature 82 °F 75 °F 92 °F (1930)
Min Temperature 57 °F 45 °F 29 °F (1938)
Cooling Degree Days 4    
Growing Degree Days 19 (Base 50)    
Moisture  
Dew Point 59 °F    
Average Humidity 74    
Maximum Humidity 90    
Minimum Humidity 52    
Precipitation  
Precipitation 0.00 in - - ()
Sea Level Pressure  
Sea Level Pressure 30.10 in    
Wind  
Wind Speed 3 mph (WSW)    
Max Wind Speed 12 mph    
Max Gust Speed 28 mph    
Visibility 9 miles    
Events Rain , Thunderstorm    
Averages and records for this station are not official NWS values.
T = Trace of Precipitation, MM = Missing Value Source: NWS Daily Summary

Daily Weather History Graph

Daily Weather History Graph

Search for Another Location

Airport or City:

Trip Planner

Search our weather history database for the weather conditions in past years. The results will help you decide how hot, cold, wet, or windy it might be!

Date:

Astronomy

May. 12, 2014 Rise Set
Actual Time 6:10 AM EDT 8:24 PM EDT
Civil Twilight 5:40 AM EDT 8:54 PM EDT
Nautical Twilight 5:03 AM EDT 9:31 PM EDT
Astronomical Twilight 4:23 AM EDT 10:12 PM EDT
Moon 6:21 PM EDT (5/12) 4:47 AM EDT (5/12)
Length of Visible Light 15h 14m
Length of Day
14h 14m
Waxing Gibbous, 95% of the Moon is Illuminated
May 12
Waxing Gibbous
May 14
Full
May 21
Last Quarter
May 28
New
Jun 5
First Quarter

Hourly Weather History & Observations

Time (EDT) Temp. Heat Index Dew Point Humidity Pressure Visibility Wind Dir Wind Speed Gust Speed Precip Events Conditions
12:53 AM 61.0 °F - 54.0 °F 78% 30.09 in 10.0 mi Calm Calm - N/A   Scattered Clouds
1:53 AM 63.0 °F - 54.0 °F 72% 30.09 in 10.0 mi Calm Calm - 0.00 in   Mostly Cloudy
2:53 AM 62.1 °F - 54.0 °F 75% 30.06 in 10.0 mi Calm Calm - N/A   Mostly Cloudy
3:53 AM 60.1 °F - 53.1 °F 78% 30.06 in 10.0 mi ESE 3.5 mph - N/A   Partly Cloudy
4:53 AM 59.0 °F - 53.1 °F 81% 30.06 in 10.0 mi Calm Calm - N/A   Scattered Clouds
5:53 AM 57.9 °F - 53.1 °F 84% 30.09 in 10.0 mi Calm Calm - N/A   Overcast
6:53 AM 57.9 °F - 55.0 °F 90% 30.11 in 10.0 mi Calm Calm - N/A   Overcast
7:53 AM 61.0 °F - 55.0 °F 81% 30.12 in 10.0 mi Calm Calm - 0.00 in Rain Light Rain
8:53 AM 64.9 °F - 57.0 °F 75% 30.13 in 10.0 mi Calm Calm - 0.00 in   Mostly Cloudy
9:11 AM 61.0 °F - 55.9 °F 83% 30.20 in 1.8 mi NW 10.4 mph 27.6 mph 0.09 in Rain Heavy Rain
9:26 AM 61.0 °F - 57.0 °F 87% 30.20 in 2.5 mi NW 3.5 mph - 0.14 in Rain Rain
9:35 AM 60.1 °F - 57.0 °F 90% 30.19 in 1.8 mi Calm Calm - 0.18 in Rain Rain
9:39 AM 60.1 °F - 57.0 °F 90% 30.18 in 3.0 mi ESE 4.6 mph - 0.19 in Rain Rain
10:53 AM 64.9 °F - 60.1 °F 84% 30.13 in 10.0 mi South 8.1 mph - 0.00 in   Mostly Cloudy
11:53 AM 71.1 °F - 63.0 °F 75% 30.13 in 10.0 mi SSW 11.5 mph - N/A   Clear
12:53 PM 73.9 °F - 62.1 °F 66% 30.12 in 10.0 mi WSW 11.5 mph - N/A   Scattered Clouds
1:53 PM 78.1 °F - 62.1 °F 58% 30.11 in 10.0 mi WSW 8.1 mph 17.3 mph 0.00 in   Clear
2:53 PM 80.1 °F 81.1 °F 61.0 °F 52% 30.10 in 10.0 mi West 8.1 mph - N/A   Overcast
3:53 PM 80.1 °F 81.2 °F 62.1 °F 54% 30.08 in 10.0 mi WSW 8.1 mph - N/A   Mostly Cloudy
4:53 PM 80.1 °F 81.5 °F 63.0 °F 56% 30.06 in 10.0 mi WSW 4.6 mph - 0.00 in Rain Light Rain
5:53 PM 81.0 °F 82.2 °F 63.0 °F 54% 30.05 in 10.0 mi WNW 5.8 mph - 0.00 in   Mostly Cloudy
6:25 PM 80.1 °F 81.5 °F 63.0 °F 56% 30.09 in 10.0 mi West 9.2 mph - N/A Thunderstorm Thunderstorm
6:49 PM 75.2 °F - 62.6 °F 65% 30.10 in 10.0 mi East 5.8 mph - N/A   Mostly Cloudy
6:53 PM 75.0 °F - 63.0 °F 66% 30.06 in 10.0 mi Calm Calm - N/A   Mostly Cloudy
7:53 PM 73.9 °F - 63.0 °F 68% 30.07 in 10.0 mi Calm Calm - N/A   Clear
8:53 PM 71.1 °F - 64.0 °F 78% 30.07 in 10.0 mi ENE 3.5 mph - N/A   Clear
9:53 PM 69.1 °F - 63.0 °F 81% 30.07 in 10.0 mi Calm Calm - N/A   Clear
11:53 PM 64.9 °F - 62.1 °F 90% 30.06 in 10.0 mi Calm Calm - N/A   Clear